| time (UTC) | temp C | wind direction | speed KPH | gust KPH | rain 1hr cm | rain 24hr cm | rain mn cm | humidity % | barometer mb |
| 20260507160050 | 11 | 156 | 0.0 | 0.0 | 0.00 | 0.00 | 0.00 | 34 | 1012.8 |
| 20260507155545 | 11 | 142 | 4.8 | 4.8 | 0.00 | 0.00 | 0.00 | 34 | 1012.7 |
| 20260507155043 | 11 | 199 | 3.2 | 4.8 | 0.00 | 0.00 | 0.00 | 35 | 1012.9 |
| 20260507154540 | 11 | 245 | 8.0 | 11.3 | 0.00 | 0.00 | 0.00 | 35 | 1013.1 |
| 20260507154037 | 11 | 338 | 6.4 | 8.0 | 0.00 | 0.00 | 0.00 | 36 | 1012.7 |
| 20260507153534 | 11 | 138 | 8.0 | 11.3 | 0.00 | 0.00 | 0.00 | 33 | 1012.7 |
| 20260507153030 | 11 | 354 | 3.2 | 4.8 | 0.00 | 0.00 | 0.00 | 38 | 1012.8 |
| 20260507152525 | 11 | 166 | 0.0 | 0.0 | 0.00 | 0.00 | 0.00 | 37 | 1012.9 |
| 20260507152022 | 10 | 151 | 0.0 | 0.0 | 0.00 | 0.00 | 0.00 | 37 | 1012.9 |
| 20260507151518 | 10 | 185 | 0.0 | 0.0 | 0.00 | 0.00 | 0.00 | 37 | 1013.1 |
| 20260507151015 | 10 | 289 | 3.2 | 4.8 | 0.00 | 0.00 | 0.00 | 40 | 1013.1 |
| 20260507150512 | 10 | 100 | 6.4 | 8.0 | 0.00 | 0.00 | 0.00 | 38 | 1013.1 |
| 20260507150009 | 10 | 192 | 3.2 | 3.2 | 0.00 | 0.00 | 0.00 | 38 | 1012.8 |
| 20260507145504 | 10 | 177 | 3.2 | 4.8 | 0.00 | 0.00 | 0.00 | 39 | 1012.7 |
| 20260507145002 | 9 | 130 | 4.8 | 4.8 | 0.00 | 0.00 | 0.00 | 40 | 1013.1 |
| 20260507144458 | 9 | 165 | 0.0 | 3.2 | 0.00 | 0.00 | 0.00 | 41 | 1013.1 |
| 20260507143955 | 9 | 156 | 0.0 | 3.2 | 0.00 | 0.00 | 0.00 | 41 | 1013.1 |
| 20260507143453 | 9 | 346 | 1.6 | 3.2 | 0.00 | 0.00 | 0.00 | 41 | 1013.1 |
| 20260507142949 | 8 | 181 | 1.6 | 3.2 | 0.00 | 0.00 | 0.00 | 41 | 1013.1 |
| 20260507142445 | 8 | 164 | 3.2 | 4.8 | 0.00 | 0.00 | 0.00 | 41 | 1013.3 |
| 20260507141943 | 8 | 169 | 0.0 | 0.0 | 0.00 | 0.00 | 0.00 | 44 | 1013.2 |
| 20260507141438 | 8 | 89 | 4.8 | 4.8 | 0.00 | 0.00 | 0.00 | 45 | 1013.2 |
| 20260507140935 | 8 | 163 | 0.0 | 3.2 | 0.00 | 0.00 | 0.00 | 46 | 1013.3 |
| 20260507140432 | 8 | 144 | 3.2 | 4.8 | 0.00 | 0.00 | 0.00 | 44 | 1013.2 |
| 20260507135930 | 8 | 213 | 1.6 | 3.2 | 0.00 | 0.00 | 0.00 | 45 | 1013.2 |
| 20260507135426 | 8 | 157 | 0.0 | 0.0 | 0.00 | 0.00 | 0.00 | 46 | 1013.1 |
| 20260507134924 | 7 | 160 | 1.6 | 3.2 | 0.00 | 0.00 | 0.00 | 49 | 1013.2 |
| 20260507134420 | 7 | 194 | 3.2 | 4.8 | 0.00 | 0.00 | 0.00 | 50 | 1013.5 |
| 20260507133916 | 6 | 238 | 0.0 | 3.2 | 0.00 | 0.00 | 0.00 | 52 | 1013.3 |
| 20260507133412 | 6 | 179 | 1.6 | 3.2 | 0.00 | 0.00 | 0.00 | 54 | 1013.3 |
| 20260507132911 | 6 | 110 | 1.6 | 3.2 | 0.00 | 0.00 | 0.00 | 57 | 1013.4 |
| 20260507132407 | 5 | 163 | 0.0 | 0.0 | 0.00 | 0.00 | 0.00 | 59 | 1013.4 |
| 20260507131905 | 5 | 312 | 3.2 | 3.2 | 0.00 | 0.00 | 0.00 | 61 | 1013.4 |
| 20260507131400 | 5 | 163 | 0.0 | 0.0 | 0.00 | 0.00 | 0.00 | 63 | 1013.5 |
| 20260507130857 | 5 | 162 | 0.0 | 0.0 | 0.00 | 0.00 | 0.00 | 65 | 1013.5 |
| 20260507130354 | 4 | 94 | 3.2 | 3.2 | 0.00 | 0.00 | 0.00 | 67 | 1013.5 |
| 20260507125853 | 3 | 177 | 0.0 | 0.0 | 0.00 | 0.00 | 0.00 | 70 | 1013.5 |
| 20260507125350 | 3 | 168 | 0.0 | 0.0 | 0.00 | 0.00 | 0.00 | 75 | 1013.6 |
| 20260507124848 | 3 | 154 | 0.0 | 0.0 | 0.00 | 0.00 | 0.00 | 78 | 1013.6 |
| 20260507124344 | 2 | 167 | 0.0 | 0.0 | 0.00 | 0.00 | 0.00 | 83 | 1013.6 |
| 20260507123843 | 2 | 164 | 0.0 | 0.0 | 0.00 | 0.00 | 0.00 | 87 | 1013.6 |
| 20260507123339 | 1 | 164 | 0.0 | 0.0 | 0.00 | 0.00 | 0.00 | 90 | 1013.6 |
| 20260507122835 | 1 | 167 | 0.0 | 0.0 | 0.00 | 0.00 | 0.00 | 93 | 1013.7 |
| 20260507122331 | 0 | 164 | 0.0 | 0.0 | 0.00 | 0.00 | 0.00 | 95 | 1013.7 |
| 20260507121828 | 0 | 163 | 0.0 | 0.0 | 0.00 | 0.00 | 0.00 | 94 | 1013.7 |
| 20260507121323 | -1 | 163 | 0.0 | 0.0 | 0.00 | 0.00 | 0.00 | 94 | 1013.7 |
| 20260507120820 | -1 | 163 | 0.0 | 0.0 | 0.00 | 0.00 | 0.00 | 94 | 1013.6 |
| 20260507120316 | -1 | 163 | 0.0 | 0.0 | 0.00 | 0.00 | 0.00 | 93 | 1013.6 |
| 20260507115812 | -1 | 163 | 0.0 | 0.0 | 0.00 | 0.00 | 0.00 | 93 | 1013.7 |
| 20260507115308 | -1 | 163 | 0.0 | 0.0 | 0.00 | 0.00 | 0.00 | 93 | 1013.7 |
| 20260507114804 | -1 | 163 | 0.0 | 0.0 | 0.00 | 0.00 | 0.00 | 93 | 1013.5 |
| 20260507114301 | -2 | 163 | 0.0 | 0.0 | 0.00 | 0.00 | 0.00 | 93 | 1013.6 |
| 20260507113759 | -2 | 163 | 0.0 | 0.0 | 0.00 | 0.00 | 0.00 | 93 | 1013.7 |
| 20260507113256 | -2 | 163 | 0.0 | 0.0 | 0.00 | 0.00 | 0.00 | 92 | 1013.7 |
| 20260507112753 | -2 | 163 | 0.0 | 0.0 | 0.00 | 0.00 | 0.00 | 92 | 1013.6 |
| 20260507112250 | -2 | 163 | 0.0 | 0.0 | 0.00 | 0.00 | 0.00 | 92 | 1013.2 |
| 20260507111748 | -2 | 163 | 0.0 | 0.0 | 0.00 | 0.00 | 0.00 | 92 | 1013.5 |
| 20260507111244 | -2 | 163 | 0.0 | 0.0 | 0.00 | 0.00 | 0.00 | 92 | 1013.5 |
| 20260507110740 | -2 | 160 | 0.0 | 0.0 | 0.00 | 0.00 | 0.00 | 92 | 1013.5 |
| 20260507110237 | -2 | 159 | 0.0 | 0.0 | 0.00 | 0.00 | 0.00 | 92 | 1013.2 |
| 20260507105734 | -2 | 167 | 0.0 | 0.0 | 0.00 | 0.00 | 0.00 | 92 | 1013.5 |
| 20260507105230 | -2 | 167 | 0.0 | 0.0 | 0.00 | 0.00 | 0.00 | 92 | 1013.5 |
| 20260507104727 | -1 | 167 | 0.0 | 0.0 | 0.00 | 0.00 | 0.00 | 92 | 1013.5 |
| 20260507104224 | -2 | 167 | 0.0 | 0.0 | 0.00 | 0.00 | 0.00 | 92 | 1013.4 |
| 20260507103720 | -2 | 167 | 0.0 | 0.0 | 0.00 | 0.00 | 0.00 | 91 | 1013.4 |
| 20260507103216 | -2 | 167 | 0.0 | 0.0 | 0.00 | 0.00 | 0.00 | 91 | 1013.4 |
| 20260507102713 | -2 | 167 | 0.0 | 0.0 | 0.00 | 0.00 | 0.00 | 91 | 1013.3 |
| 20260507102209 | -1 | 167 | 0.0 | 0.0 | 0.00 | 0.00 | 0.00 | 91 | 1013.3 |
| 20260507101705 | -1 | 167 | 0.0 | 0.0 | 0.00 | 0.00 | 0.00 | 91 | 1013.3 |
| 20260507101201 | -1 | 167 | 0.0 | 0.0 | 0.00 | 0.00 | 0.00 | 90 | 1013.5 |
| 20260507100658 | -1 | 167 | 0.0 | 0.0 | 0.00 | 0.00 | 0.00 | 90 | 1013.6 |
| 20260507100157 | -1 | 167 | 0.0 | 0.0 | 0.00 | 0.00 | 0.00 | 90 | 1013.5 |
| 20260507095654 | -1 | 167 | 0.0 | 0.0 | 0.00 | 0.00 | 0.00 | 90 | 1013.5 |
| 20260507095151 | -1 | 167 | 0.0 | 0.0 | 0.00 | 0.00 | 0.00 | 90 | 1013.6 |
| 20260507094647 | -1 | 167 | 0.0 | 0.0 | 0.00 | 0.00 | 0.00 | 89 | 1013.7 |
| 20260507094144 | -1 | 167 | 0.0 | 0.0 | 0.00 | 0.00 | 0.00 | 89 | 1013.5 |
| 20260507093642 | -1 | 167 | 0.0 | 0.0 | 0.00 | 0.00 | 0.00 | 89 | 1013.5 |
| 20260507093141 | -1 | 167 | 0.0 | 0.0 | 0.00 | 0.00 | 0.00 | 89 | 1013.5 |
| 20260507092636 | -1 | 167 | 0.0 | 0.0 | 0.00 | 0.00 | 0.00 | 89 | 1013.6 |
| 20260507092133 | -1 | 167 | 0.0 | 0.0 | 0.00 | 0.00 | 0.00 | 89 | 1013.7 |
| 20260507091629 | -1 | 167 | 0.0 | 0.0 | 0.00 | 0.00 | 0.00 | 88 | 1013.7 |
| 20260507091125 | -1 | 167 | 0.0 | 0.0 | 0.00 | 0.00 | 0.00 | 88 | 1013.6 |
| 20260507090621 | -1 | 167 | 0.0 | 0.0 | 0.00 | 0.00 | 0.00 | 88 | 1013.6 |
| 20260507090119 | -1 | 167 | 0.0 | 0.0 | 0.00 | 0.00 | 0.00 | 88 | 1013.7 |
| 20260507085616 | -1 | 167 | 0.0 | 0.0 | 0.00 | 0.00 | 0.00 | 88 | 1013.5 |
| 20260507085112 | -1 | 167 | 0.0 | 0.0 | 0.00 | 0.00 | 0.00 | 87 | 1013.7 |
| 20260507084609 | -1 | 167 | 0.0 | 0.0 | 0.00 | 0.00 | 0.00 | 87 | 1013.7 |
| 20260507084106 | -1 | 167 | 0.0 | 0.0 | 0.00 | 0.00 | 0.00 | 87 | 1013.7 |
| 20260507083603 | -1 | 167 | 0.0 | 0.0 | 0.00 | 0.00 | 0.00 | 86 | 1013.6 |
| 20260507083100 | -1 | 167 | 0.0 | 0.0 | 0.00 | 0.00 | 0.00 | 86 | 1013.6 |
| 20260507082555 | -1 | 167 | 0.0 | 0.0 | 0.00 | 0.00 | 0.00 | 87 | 1013.5 |
| 20260507082052 | -1 | 167 | 0.0 | 0.0 | 0.00 | 0.00 | 0.00 | 86 | 1013.5 |
| 20260507081548 | -1 | 167 | 0.0 | 0.0 | 0.00 | 0.00 | 0.00 | 86 | 1013.6 |
| 20260507081045 | -1 | 167 | 0.0 | 0.0 | 0.00 | 0.00 | 0.00 | 86 | 1013.8 |
| 20260507080541 | -1 | 167 | 0.0 | 0.0 | 0.00 | 0.00 | 0.00 | 86 | 1013.6 |
| 20260507080038 | -1 | 167 | 0.0 | 0.0 | 0.00 | 0.00 | 0.00 | 85 | 1013.7 |
| 20260507075533 | -1 | 167 | 0.0 | 0.0 | 0.00 | 0.00 | 0.00 | 85 | 1013.6 |
| 20260507075030 | -1 | 167 | 0.0 | 0.0 | 0.00 | 0.00 | 0.00 | 85 | 1013.9 |
| 20260507074526 | 0 | 167 | 0.0 | 0.0 | 0.00 | 0.00 | 0.00 | 85 | 1013.9 |
| 20260507074025 | 0 | 167 | 0.0 | 0.0 | 0.00 | 0.00 | 0.00 | 85 | 1013.9 |
| 20260507073521 | -1 | 167 | 0.0 | 0.0 | 0.00 | 0.00 | 0.00 | 85 | 1013.8 |
| 20260507073018 | -1 | 167 | 0.0 | 0.0 | 0.00 | 0.00 | 0.00 | 84 | 1013.7 |
| 20260507072515 | -1 | 167 | 0.0 | 0.0 | 0.00 | 0.00 | 0.00 | 83 | 1013.9 |
| 20260507072012 | -1 | 167 | 0.0 | 0.0 | 0.00 | 0.00 | 0.00 | 83 | 1013.7 |
| 20260507071509 | -1 | 167 | 0.0 | 0.0 | 0.00 | 0.00 | 0.00 | 82 | 1014.0 |
| 20260507071006 | 0 | 167 | 0.0 | 0.0 | 0.00 | 0.00 | 0.00 | 81 | 1014.0 |
| 20260507070503 | 0 | 167 | 0.0 | 0.0 | 0.00 | 0.00 | 0.00 | 81 | 1014.0 |
| 20260507070000 | 0 | 167 | 0.0 | 0.0 | 0.00 | 0.00 | 0.00 | 80 | 1014.1 |
| 20260507065456 | 0 | 167 | 0.0 | 0.0 | 0.00 | 0.00 | 0.00 | 80 | 1014.3 |
| 20260507064953 | 0 | 167 | 0.0 | 0.0 | 0.00 | 0.00 | 0.00 | 79 | 1014.1 |
| 20260507064452 | 0 | 167 | 0.0 | 0.0 | 0.00 | 0.00 | 0.00 | 78 | 1014.3 |
| 20260507063949 | 0 | 167 | 0.0 | 0.0 | 0.00 | 0.00 | 0.00 | 78 | 1014.4 |
| 20260507063446 | 0 | 167 | 0.0 | 0.0 | 0.00 | 0.00 | 0.00 | 77 | 1014.3 |
| 20260507062943 | 0 | 167 | 0.0 | 0.0 | 0.00 | 0.00 | 0.00 | 77 | 1014.3 |
| 20260507062440 | 0 | 167 | 0.0 | 0.0 | 0.00 | 0.00 | 0.00 | 76 | 1014.5 |
| 20260507061937 | 0 | 167 | 0.0 | 0.0 | 0.00 | 0.00 | 0.00 | 75 | 1014.4 |
| 20260507061435 | 0 | 167 | 0.0 | 0.0 | 0.00 | 0.00 | 0.00 | 74 | 1014.4 |
| 20260507060934 | 1 | 167 | 0.0 | 0.0 | 0.00 | 0.00 | 0.00 | 74 | 1014.6 |
| 20260507060430 | 1 | 167 | 0.0 | 0.0 | 0.00 | 0.00 | 0.00 | 73 | 1014.6 |
| 20260507055927 | 1 | 167 | 0.0 | 0.0 | 0.00 | 0.00 | 0.00 | 72 | 1014.4 |
| 20260507055422 | 1 | 167 | 0.0 | 0.0 | 0.00 | 0.00 | 0.00 | 72 | 1014.5 |
| 20260507054919 | 1 | 167 | 0.0 | 0.0 | 0.00 | 0.00 | 0.00 | 71 | 1014.4 |
| 20260507054415 | 2 | 167 | 0.0 | 0.0 | 0.00 | 0.00 | 0.00 | 70 | 1014.6 |
| 20260507053913 | 2 | 167 | 0.0 | 0.0 | 0.00 | 0.00 | 0.00 | 70 | 1014.7 |
| 20260507053410 | 2 | 167 | 0.0 | 0.0 | 0.00 | 0.00 | 0.00 | 68 | 1014.5 |
| 20260507052909 | 2 | 167 | 0.0 | 0.0 | 0.00 | 0.00 | 0.00 | 66 | 1014.7 |
| 20260507052406 | 3 | 167 | 0.0 | 0.0 | 0.00 | 0.00 | 0.00 | 66 | 1014.5 |
| 20260507051903 | 3 | 167 | 0.0 | 0.0 | 0.00 | 0.00 | 0.00 | 65 | 1014.7 |
| 20260507051400 | 3 | 167 | 0.0 | 0.0 | 0.00 | 0.00 | 0.00 | 65 | 1014.6 |
| 20260507050857 | 3 | 167 | 0.0 | 0.0 | 0.00 | 0.00 | 0.00 | 65 | 1014.6 |
| 20260507050354 | 3 | 167 | 0.0 | 0.0 | 0.00 | 0.00 | 0.00 | 65 | 1014.6 |
| 20260507045850 | 3 | 167 | 0.0 | 0.0 | 0.00 | 0.00 | 0.00 | 64 | 1014.7 |
| 20260507045347 | 3 | 167 | 0.0 | 0.0 | 0.00 | 0.00 | 0.00 | 64 | 1014.6 |
| 20260507044844 | 3 | 167 | 0.0 | 0.0 | 0.00 | 0.00 | 0.00 | 63 | 1014.7 |
| 20260507044341 | 4 | 167 | 0.0 | 0.0 | 0.00 | 0.00 | 0.00 | 62 | 1014.8 |
| 20260507043837 | 4 | 167 | 0.0 | 0.0 | 0.00 | 0.00 | 0.00 | 61 | 1014.8 |
| 20260507043334 | 4 | 167 | 0.0 | 0.0 | 0.00 | 0.00 | 0.00 | 62 | 1014.9 |
| 20260507042830 | 4 | 167 | 0.0 | 0.0 | 0.00 | 0.00 | 0.00 | 61 | 1014.9 |
| 20260507042325 | 3 | 167 | 0.0 | 0.0 | 0.00 | 0.00 | 0.00 | 59 | 1014.8 |
| 20260507041823 | 3 | 167 | 0.0 | 0.0 | 0.00 | 0.00 | 0.00 | 59 | 1015.0 |
| 20260507041319 | 3 | 167 | 0.0 | 0.0 | 0.00 | 0.00 | 0.00 | 59 | 1015.0 |
| 20260507040816 | 3 | 167 | 0.0 | 0.0 | 0.00 | 0.00 | 0.00 | 60 | 1015.0 |
| 20260507040312 | 3 | 167 | 0.0 | 0.0 | 0.00 | 0.00 | 0.00 | 60 | 1015.1 |
| 20260507035808 | 3 | 167 | 0.0 | 0.0 | 0.00 | 0.00 | 0.00 | 61 | 1015.1 |
| 20260507035306 | 3 | 167 | 0.0 | 0.0 | 0.00 | 0.00 | 0.00 | 63 | 1015.2 |
| 20260507034802 | 3 | 167 | 0.0 | 0.0 | 0.00 | 0.00 | 0.00 | 63 | 1015.1 |
| 20260507034258 | 3 | 167 | 0.0 | 0.0 | 0.00 | 0.00 | 0.00 | 64 | 1015.2 |
| 20260507033757 | 3 | 166 | 0.0 | 0.0 | 0.00 | 0.00 | 0.00 | 65 | 1015.0 |
| 20260507033254 | 2 | 167 | 0.0 | 0.0 | 0.00 | 0.00 | 0.00 | 64 | 1015.0 |
| 20260507032751 | 2 | 167 | 0.0 | 0.0 | 0.00 | 0.00 | 0.00 | 64 | 1015.2 |
| 20260507032247 | 2 | 167 | 0.0 | 0.0 | 0.00 | 0.00 | 0.00 | 65 | 1015.2 |
| 20260507031743 | 2 | 167 | 0.0 | 0.0 | 0.00 | 0.00 | 0.00 | 66 | 1015.1 |
| 20260507031241 | 2 | 167 | 0.0 | 0.0 | 0.00 | 0.00 | 0.00 | 66 | 1015.2 |
| 20260507030737 | 2 | 167 | 0.0 | 0.0 | 0.00 | 0.00 | 0.00 | 66 | 1015.3 |
| 20260507030235 | 2 | 167 | 0.0 | 0.0 | 0.00 | 0.00 | 0.00 | 65 | 1015.4 |
| 20260507025732 | 2 | 167 | 0.0 | 0.0 | 0.00 | 0.00 | 0.00 | 65 | 1015.2 |
| 20260507025229 | 2 | 167 | 0.0 | 0.0 | 0.00 | 0.00 | 0.00 | 65 | 1015.3 |
| 20260507024727 | 2 | 167 | 0.0 | 0.0 | 0.00 | 0.00 | 0.00 | 64 | 1015.1 |
| 20260507024224 | 2 | 167 | 0.0 | 0.0 | 0.00 | 0.00 | 0.00 | 64 | 1015.5 |
| 20260507023719 | 2 | 167 | 0.0 | 0.0 | 0.00 | 0.00 | 0.00 | 63 | 1015.4 |
| 20260507023216 | 2 | 167 | 0.0 | 0.0 | 0.00 | 0.00 | 0.00 | 63 | 1015.5 |
| 20260507022714 | 2 | 167 | 0.0 | 0.0 | 0.00 | 0.00 | 0.00 | 61 | 1015.2 |
| 20260507022209 | 2 | 167 | 0.0 | 0.0 | 0.00 | 0.00 | 0.00 | 60 | 1015.2 |
| 20260507021706 | 2 | 167 | 0.0 | 0.0 | 0.00 | 0.00 | 0.00 | 60 | 1015.4 |
| 20260507021201 | 3 | 167 | 0.0 | 0.0 | 0.00 | 0.00 | 0.00 | 60 | 1015.3 |
| 20260507020701 | 3 | 167 | 0.0 | 0.0 | 0.00 | 0.00 | 0.00 | 59 | 1015.3 |
| 20260507020156 | 3 | 166 | 0.0 | 0.0 | 0.00 | 0.00 | 0.00 | 58 | 1015.3 |
| 20260507015654 | 3 | 166 | 0.0 | 0.0 | 0.00 | 0.00 | 0.00 | 57 | 1015.4 |
| 20260507015151 | 3 | 166 | 0.0 | 0.0 | 0.00 | 0.00 | 0.00 | 56 | 1015.4 |
| 20260507014648 | 4 | 169 | 0.0 | 0.0 | 0.00 | 0.00 | 0.00 | 56 | 1015.2 |
| 20260507014144 | 5 | 161 | 0.0 | 0.0 | 0.00 | 0.00 | 0.00 | 55 | 1015.4 |
| 20260507013641 | 5 | 169 | 0.0 | 0.0 | 0.00 | 0.00 | 0.00 | 53 | 1015.2 |
| 20260507013138 | 5 | 168 | 0.0 | 0.0 | 0.00 | 0.00 | 0.00 | 52 | 1015.2 |
| 20260507012635 | 5 | 174 | 0.0 | 0.0 | 0.00 | 0.00 | 0.00 | 51 | 1015.3 |
| 20260507012130 | 5 | 172 | 0.0 | 0.0 | 0.00 | 0.00 | 0.00 | 51 | 1015.3 |
| 20260507011629 | 6 | 163 | 0.0 | 0.0 | 0.00 | 0.00 | 0.00 | 51 | 1015.5 |
| 20260507011125 | 6 | 169 | 0.0 | 0.0 | 0.00 | 0.00 | 0.00 | 50 | 1015.2 |
| 20260507010620 | 6 | 128 | 0.0 | 3.2 | 0.00 | 0.00 | 0.00 | 49 | 1015.4 |
| 20260507010116 | 6 | 166 | 0.0 | 3.2 | 0.00 | 0.00 | 0.00 | 49 | 1015.3 |
| 20260507005613 | 6 | 179 | 0.0 | 0.0 | 0.00 | 0.00 | 0.00 | 48 | 1015.3 |
| 20260507005109 | 7 | 168 | 1.6 | 3.2 | 0.00 | 0.00 | 0.00 | 47 | 1015.5 |
| 20260507004606 | 7 | 179 | 3.2 | 4.8 | 0.00 | 0.00 | 0.00 | 46 | 1015.3 |
| 20260507004104 | 7 | 157 | 3.2 | 4.8 | 0.00 | 0.00 | 0.00 | 45 | 1015.4 |
| 20260507003600 | 7 | 158 | 1.6 | 3.2 | 0.00 | 0.00 | 0.00 | 45 | 1015.3 |
| 20260507003055 | 7 | 7 | 6.4 | 8.0 | 0.00 | 0.00 | 0.00 | 46 | 1015.6 |
| 20260507002552 | 7 | 323 | 3.2 | 8.0 | 0.00 | 0.00 | 0.00 | 46 | 1015.5 |
| 20260507002047 | 7 | 202 | 1.6 | 3.2 | 0.00 | 0.00 | 0.00 | 46 | 1015.4 |
| 20260507001544 | 7 | 172 | 0.0 | 3.2 | 0.00 | 0.00 | 0.00 | 47 | 1015.4 |
| 20260507001042 | 7 | 170 | 3.2 | 3.2 | 0.00 | 0.00 | 0.00 | 46 | 1015.6 |
| 20260507000538 | 7 | 89 | 3.2 | 8.0 | 0.00 | 0.00 | 0.00 | 46 | 1015.4 |
| 20260507000033 | 7 | 349 | 1.6 | 4.8 | 0.00 | 0.00 | 0.00 | 47 | 1015.4 |
| 20260506235531 | 7 | 168 | 0.0 | 0.0 | 0.00 | 0.00 | 0.00 | 47 | 1015.5 |
| 20260506235021 | 7 | 183 | 1.6 | 3.2 | 0.00 | 0.00 | 0.00 | 47 | 1015.5 |
| 20260506234519 | 7 | 151 | 0.0 | 3.2 | 0.00 | 0.00 | 0.00 | 47 | 1015.4 |
| 20260506234016 | 7 | 188 | 4.8 | 4.8 | 0.00 | 0.00 | 0.00 | 46 | 1015.5 |
| 20260506233512 | 7 | 157 | 4.8 | 8.0 | 0.00 | 0.00 | 0.00 | 46 | 1015.6 |
| 20260506233009 | 7 | 91 | 4.8 | 4.8 | 0.00 | 0.00 | 0.00 | 45 | 1015.5 |
| 20260506232506 | 7 | 250 | 3.2 | 4.8 | 0.00 | 0.00 | 0.00 | 45 | 1015.5 |
| 20260506232001 | 7 | 200 | 0.0 | 0.0 | 0.00 | 0.00 | 0.00 | 47 | 1015.7 |
| 20260506231459 | 7 | 187 | 0.0 | 3.2 | 0.00 | 0.00 | 0.00 | 46 | 1015.7 |
| 20260506230956 | 7 | 224 | 6.4 | 8.0 | 0.00 | 0.00 | 0.00 | 46 | 1015.8 |
| 20260506230452 | 7 | 330 | 8.0 | 11.3 | 0.00 | 0.00 | 0.00 | 46 | 1015.7 |
| 20260506225949 | 7 | 346 | 8.0 | 11.3 | 0.00 | 0.00 | 0.00 | 46 | 1015.6 |
| 20260506225447 | 7 | 199 | 3.2 | 3.2 | 0.00 | 0.00 | 0.00 | 46 | 1015.7 |
| 20260506224943 | 7 | 351 | 6.4 | 8.0 | 0.00 | 0.00 | 0.00 | 46 | 1015.7 |
| 20260506224440 | 7 | 165 | 6.4 | 11.3 | 0.00 | 0.00 | 0.00 | 46 | 1015.9 |
| 20260506223936 | 8 | 175 | 1.6 | 3.2 | 0.00 | 0.00 | 0.00 | 46 | 1015.8 |
| 20260506223432 | 8 | 181 | 1.6 | 3.2 | 0.00 | 0.00 | 0.00 | 46 | 1015.7 |
| 20260506222929 | 7 | 173 | 1.6 | 3.2 | 0.00 | 0.00 | 0.00 | 48 | 1015.7 |
| 20260506222425 | 7 | 176 | 3.2 | 3.2 | 0.00 | 0.00 | 0.00 | 46 | 1015.7 |
| 20260506221923 | 7 | 180 | 1.6 | 3.2 | 0.00 | 0.00 | 0.00 | 46 | 1015.8 |
| 20260506221420 | 7 | 197 | 1.6 | 3.2 | 0.00 | 0.00 | 0.00 | 47 | 1015.8 |
| 20260506220918 | 7 | 317 | 4.8 | 8.0 | 0.00 | 0.00 | 0.00 | 45 | 1015.7 |
| 20260506220413 | 7 | 150 | 3.2 | 4.8 | 0.00 | 0.00 | 0.00 | 46 | 1015.8 |
| 20260506215910 | 7 | 355 | 6.4 | 8.0 | 0.00 | 0.00 | 0.00 | 46 | 1015.8 |
| 20260506215406 | 7 | 172 | 3.2 | 3.2 | 0.00 | 0.00 | 0.00 | 48 | 1016.0 |
| 20260506214902 | 7 | 240 | 6.4 | 11.3 | 0.00 | 0.00 | 0.00 | 46 | 1016.0 |
| 20260506214359 | 7 | 177 | 1.6 | 3.2 | 0.00 | 0.00 | 0.00 | 46 | 1016.1 |
| 20260506213857 | 7 | 192 | 3.2 | 4.8 | 0.00 | 0.00 | 0.00 | 46 | 1016.0 |
| 20260506213354 | 7 | 196 | 3.2 | 4.8 | 0.00 | 0.00 | 0.00 | 46 | 1016.2 |
| 20260506212851 | 8 | 158 | 3.2 | 4.8 | 0.00 | 0.00 | 0.00 | 45 | 1016.3 |
| 20260506212346 | 8 | 236 | 0.0 | 3.2 | 0.00 | 0.00 | 0.00 | 46 | 1016.2 |
| 20260506211841 | 7 | 180 | 3.2 | 3.2 | 0.00 | 0.00 | 0.00 | 46 | 1016.2 |
| 20260506211338 | 7 | 181 | 0.0 | 0.0 | 0.00 | 0.00 | 0.00 | 47 | 1016.3 |
| 20260506210835 | 7 | 258 | 4.8 | 8.0 | 0.00 | 0.00 | 0.00 | 47 | 1016.1 |
| 20260506210332 | 7 | 259 | 3.2 | 4.8 | 0.00 | 0.00 | 0.00 | 47 | 1016.2 |
| 20260506205829 | 7 | 192 | 1.6 | 3.2 | 0.00 | 0.00 | 0.00 | 49 | 1016.4 |
| 20260506205325 | 7 | 348 | 4.8 | 4.8 | 0.00 | 0.00 | 0.00 | 48 | 1016.4 |
| 20260506204822 | 7 | 358 | 9.7 | 14.5 | 0.00 | 0.00 | 0.00 | 48 | 1016.5 |
| 20260506204320 | 7 | 26 | 3.2 | 8.0 | 0.00 | 0.00 | 0.00 | 48 | 1016.4 |
| 20260506203817 | 7 | 193 | 3.2 | 4.8 | 0.00 | 0.00 | 0.00 | 48 | 1016.5 |
| 20260506203314 | 7 | 168 | 3.2 | 4.8 | 0.00 | 0.00 | 0.00 | 47 | 1016.4 |
| 20260506202811 | 7 | 80 | 6.4 | 8.0 | 0.00 | 0.00 | 0.00 | 47 | 1016.3 |
| 20260506202308 | 7 | 274 | 3.2 | 4.8 | 0.00 | 0.00 | 0.00 | 47 | 1016.4 |
| 20260506201804 | 7 | 169 | 3.2 | 3.2 | 0.00 | 0.00 | 0.00 | 48 | 1016.6 |
| 20260506201302 | 7 | 311 | 3.2 | 4.8 | 0.00 | 0.00 | 0.00 | 49 | 1016.6 |
| 20260506200759 | 7 | 316 | 4.8 | 8.0 | 0.00 | 0.00 | 0.00 | 47 | 1016.6 |
| 20260506200255 | 7 | 6 | 6.4 | 8.0 | 0.00 | 0.00 | 0.00 | 49 | 1016.3 |
| 20260506195751 | 7 | 177 | 3.2 | 3.2 | 0.00 | 0.00 | 0.00 | 48 | 1016.5 |
| 20260506195248 | 7 | 243 | 3.2 | 4.8 | 0.00 | 0.00 | 0.00 | 49 | 1016.6 |
| 20260506194745 | 7 | 173 | 3.2 | 3.2 | 0.00 | 0.00 | 0.00 | 50 | 1016.5 |
| 20260506194241 | 6 | 359 | 4.8 | 8.0 | 0.00 | 0.00 | 0.00 | 50 | 1016.5 |
| 20260506193739 | 6 | 186 | 1.6 | 3.2 | 0.00 | 0.00 | 0.00 | 51 | 1016.6 |
| 20260506193236 | 6 | 250 | 3.2 | 4.8 | 0.00 | 0.00 | 0.00 | 49 | 1016.6 |
| 20260506192732 | 6 | 169 | 6.4 | 11.3 | 0.00 | 0.00 | 0.00 | 49 | 1016.6 |
| 20260506192229 | 6 | 269 | 3.2 | 4.8 | 0.00 | 0.00 | 0.00 | 49 | 1016.8 |
| 20260506191726 | 6 | 235 | 3.2 | 4.8 | 0.00 | 0.00 | 0.00 | 49 | 1016.6 |
| 20260506191222 | 6 | 7 | 3.2 | 4.8 | 0.00 | 0.00 | 0.00 | 48 | 1016.6 |
| 20260506190719 | 6 | 18 | 4.8 | 8.0 | 0.00 | 0.00 | 0.00 | 49 | 1016.7 |
| 20260506190216 | 6 | 167 | 0.0 | 0.0 | 0.00 | 0.00 | 0.00 | 49 | 1016.5 |
| 20260506185713 | 6 | 168 | 4.8 | 4.8 | 0.00 | 0.00 | 0.00 | 48 | 1016.5 |
| 20260506185209 | 6 | 232 | 1.6 | 3.2 | 0.00 | 0.00 | 0.00 | 48 | 1016.5 |
| 20260506184707 | 7 | 330 | 8.0 | 14.5 | 0.00 | 0.00 | 0.00 | 48 | 1016.6 |
| 20260506184204 | 7 | 185 | 0.0 | 0.0 | 0.00 | 0.00 | 0.00 | 48 | 1016.5 |
| 20260506183701 | 6 | 48 | 6.4 | 8.0 | 0.00 | 0.00 | 0.00 | 48 | 1016.5 |
| 20260506183156 | 6 | 134 | 1.6 | 3.2 | 0.00 | 0.00 | 0.00 | 50 | 1016.8 |
| 20260506182654 | 6 | 139 | 0.0 | 3.2 | 0.00 | 0.00 | 0.00 | 50 | 1016.7 |
| 20260506182152 | 6 | 312 | 4.8 | 8.0 | 0.00 | 0.00 | 0.00 | 48 | 1016.6 |
| 20260506181649 | 6 | 269 | 8.0 | 11.3 | 0.00 | 0.00 | 0.00 | 48 | 1016.7 |
| 20260506181146 | 6 | 341 | 8.0 | 11.3 | 0.00 | 0.00 | 0.00 | 48 | 1016.9 |
| 20260506180643 | 6 | 73 | 4.8 | 8.0 | 0.00 | 0.00 | 0.00 | 48 | 1016.5 |
| 20260506180139 | 6 | 159 | 3.2 | 3.2 | 0.00 | 0.00 | 0.00 | 50 | 1016.7 |
| 20260506175636 | 6 | 183 | 3.2 | 3.2 | 0.00 | 0.00 | 0.00 | 50 | 1016.7 |
| 20260506175132 | 6 | 247 | 3.2 | 4.8 | 0.00 | 0.00 | 0.00 | 49 | 1016.9 |
| 20260506174631 | 6 | 296 | 8.0 | 11.3 | 0.00 | 0.00 | 0.00 | 49 | 1016.9 |
| 20260506174127 | 6 | 205 | 3.2 | 3.2 | 0.00 | 0.00 | 0.00 | 50 | 1016.8 |
| 20260506173625 | 6 | 31 | 6.4 | 8.0 | 0.00 | 0.00 | 0.00 | 50 | 1016.9 |
| 20260506173121 | 6 | 337 | 3.2 | 4.8 | 0.00 | 0.00 | 0.00 | 49 | 1017.1 |
| 20260506172619 | 6 | 168 | 3.2 | 4.8 | 0.00 | 0.00 | 0.00 | 49 | 1016.9 |
| 20260506172115 | 6 | 39 | 3.2 | 4.8 | 0.00 | 0.00 | 0.00 | 51 | 1016.9 |
| 20260506171613 | 6 | 162 | 4.8 | 8.0 | 0.00 | 0.00 | 0.00 | 49 | 1017.1 |
| 20260506171111 | 6 | 32 | 3.2 | 4.8 | 0.00 | 0.00 | 0.00 | 49 | 1017.1 |
| 20260506170608 | 5 | 258 | 1.6 | 3.2 | 0.00 | 0.00 | 0.00 | 51 | 1017.3 |
| 20260506170105 | 5 | 248 | 4.8 | 8.0 | 0.00 | 0.00 | 0.00 | 51 | 1017.2 |
| 20260506165603 | 6 | 203 | 4.8 | 8.0 | 0.00 | 0.00 | 0.00 | 49 | 1017.3 |
| 20260506165059 | 5 | 183 | 1.6 | 3.2 | 0.00 | 0.00 | 0.00 | 51 | 1017.4 |
| 20260506164556 | 5 | 142 | 1.6 | 3.2 | 0.00 | 0.00 | 0.00 | 52 | 1017.3 |
| 20260506164053 | 5 | 14 | 4.8 | 8.0 | 0.00 | 0.00 | 0.00 | 50 | 1017.2 |
| 20260506163549 | 5 | 101 | 6.4 | 8.0 | 0.00 | 0.00 | 0.00 | 50 | 1017.3 |
| 20260506163046 | 5 | 201 | 3.2 | 3.2 | 0.00 | 0.00 | 0.00 | 51 | 1017.2 |
| 20260506162542 | 5 | 352 | 6.4 | 14.5 | 0.00 | 0.00 | 0.00 | 50 | 1017.2 |
| 20260506162039 | 5 | 14 | 8.0 | 16.1 | 0.00 | 0.00 | 0.00 | 50 | 1017.2 |
| 20260506161536 | 5 | 322 | 4.8 | 11.3 | 0.00 | 0.00 | 0.00 | 51 | 1017.2 |
| 20260506161033 | 5 | 347 | 9.7 | 16.1 | 0.00 | 0.00 | 0.00 | 50 | 1017.2 |
| 20260506160531 | 5 | 283 | 6.4 | 11.3 | 0.00 | 0.00 | 0.00 | 49 | 1017.3 |